Powrót do katalogu

ATLAS 5 CENTAUR DEB

AktywnyHEO
NORAD 43974·DEBRIS·🇺🇸 United States

Wystrzelony Sep 17, 2014 z Cape Canaveral Space Force Station

Loading…

Następne Przeloty (najbliższe 24 godziny)

TLE

NieaktualneSource: Space-Track

Epoka: Aug 19, 2026, 07:04 UTC

1 43974U 14055AD  26231.29466429 -.00000174  00000-0  00000-0 0  9991
2 43974  20.4712 125.8813 4853687 191.1365 152.2331  1.84465663 53693

Śledź ATLAS 5 CENTAUR DEB w czasie rzeczywistym z AllMySat

Download on the App Store